Regional Weather Roundup
Issued by NWS New Orleans/Baton Rouge, LA

Home | Current Version | Previous Version | Text Only | Print | Product List | Glossary On
Versions: 1 2 3 4 5 6 7 8 9 10 11 12 13 14 15 16 17 18 19 20 21 22 23 24 25 26 27 28 29 30 31 32 33 34 35 36 37 38 39 40 41 42 43 44 45 46 47 48 49 50
354
ASUS44 KLIX 162213
RWRLIX
NEW ORLEANS REGIONAL WEATHER ROUNDUP
NATIONAL WEATHER SERVICE NEW ORLEANS LA
400 PM CST MON JAN 16 2017

NOTE: "FAIR" INDICATES FEW OR NO CLOUDS BELOW 12,000 FEET WITH NO
      SIGNIFICANT WEATHER AND/OR OBSTRUCTIONS TO VISIBILITY.
      SKY/WX - SKY CONDITION AND SIGNIFICANT WEATHER.
      TMP - AIR TEMPERATURE.     DP    - DEWPOINT TEMPERATURE.
      RH  - RELATIVE HUMIDITY.   PRES  - PRESSURE.
      HI  - HEAT INDEX.          WCI   - WIND CHILL INDEX.

*  THESE STATIONS ARE NOT NWS OR FAA STATIONS AND ARE NOT UNDER
   NWS QUALITY CONTROL.

LAZ038-040-048-061>063-065>067-069-162300-
SOUTHEAST LOUISIANA

CITY           SKY/WX    TMP DP  RH WIND       PRES   REMARKS
N.O. AUDUBON   NOT AVBL
N.O. INTL ARPT PTSUNNY   75  66  73 S16       30.10R
N.O. LAKEFRONT PTSUNNY   72  68  87 S10       30.11S
N.O. DOWNTOWN*   N/A     76  65  68 S14       30.11S
RESERVE*       CLOUDY    74  70  85 SE9       30.09S
SLIDELL        CLOUDY    74  66  76 SE9       30.11S
BATON ROUGE    PTSUNNY   77  65  66 S14       30.06S
BOOTHVILLE     MOSUNNY   71  68  90 SE8       30.13S
BELLE CHASSE   PTSUNNY   75  67  76 SE14G23   30.10S
BOGALUSA*      CLOUDY    76  63  62 S10       30.12S
GALLIANO*      CLOUDY    74  62  68 SE9       30.10S
NEW ROADS*     MOCLDY    74  64  71 S9        30.06R
GONZALES*      LGT RAIN  72  67  85 MISG      30.07S
HAMMOND*       CLOUDY    73  63  68 SE10G16   30.10R
HOUMA*         MOSUNNY   73  66  78 SE13      30.10S
PORT FOURCHON* MOCLDY    70  68  94 E7        30.10S FOG

$$

MSZ070-080>082-162300-
SOUTHERN MISSISSIPPI

CITY           SKY/WX    TMP DP  RH WIND       PRES   REMARKS
MCCOMB         PTSUNNY   74  61  63 SE20      30.08S
GULFPORT       PTSUNNY   73  66  78 SE14      30.14S
BILOXI         PTSUNNY   72  68  86 SE13      30.14S
PASCAGOULA     MOSUNNY   75  63  66 SE13      30.16R
STENNIS ARPT*  PTSUNNY   73  63  68 SE9       30.14R

$$

COASTAL OBSERVATIONS
LAKE AND NEARSHORE STATIONS

STATION/POSITION TIME  TEMP    WIND        PRES    WAVE
                       AIR SEA DIR/SP/G            HT/PER
                 (UTC) (F)     (DEG/KT/KT) (MB)    (FT/S)
PASCAGOULA       2142   73     120/ 10/ 13 1020.8
WAVELAND YACHT   2142   68 64  130/ 10/ 12 1020.6
GRAND ISLE       2142   69 65  130/  7/  8 1019.7
SOUTHWEST PASS   2142          140/ 11/ 12   N/A
NEW CANAL        2142   76 58  150/  7/ 15 1018.5
SHELL BEACH      2142   72 65  140/ 15/ 18 1019.9

OFFSHORE STATIONS

STATION/POSITION TIME  TEMP    WIND        PRES    WAVE
                       AIR SEA DIR/SP/G            HT/PER
                 (UTC) (F)     (DEG/KT/KT) (MB)    (FT/S)

$$





USA.gov is the U.S. government's official web portal to all federal, state and local government web resources and services.